Simultaneous Nadir Overpasses (SNOs) Predictions

Prediction of SNOs between GOES-16 and METOP-C Satellite Orbit:

Table of predicted SNOs for the next 14.0 days since TLE Epoch: 3/7/2025
Index Date Time (GOES-16) GOES-16 Lat,Lon METOP-C Lat,Lon Distance(km) Time Diff (sec)
1 03/08/2025 02:20:12 -0.03, -75.22 0.54, -72.73 284.88 80
2 03/09/2025 14:39:05 0.04, -75.27 0.47, -77.29 230.12 80
3 03/10/2025 14:21:05 0.04, -75.29 -0.60, -72.29 340.16 80
4 03/12/2025 02:40:08 -0.04, -75.28 -0.38, -76.91 184.78 80
5 03/13/2025 02:16:48 -0.04, -75.30 0.69, -71.91 385.92 80
6 03/14/2025 14:35:40 0.04, -75.36 0.32, -76.48 127.51 80
7 03/15/2025 14:17:42 0.04, -75.39 -0.82, -71.49 443.88 80
8 03/17/2025 02:36:43 -0.04, -75.40 -0.20, -76.09 79.44 80
9 03/18/2025 02:13:25 -0.04, -75.42 0.95, -71.11 491.90 80
10 03/19/2025 14:32:17 0.04, -75.49 0.05, -75.68 21.25 80
